Terminal Aerodrome Forecast
Issued by NWS Cleveland, OH

Home | Current Version | Previous Version | Graphics & Text | Print | Product List | Glossary On
Versions: 1 2 3 4 5 6 7 8 9 10 11 12 13 14 15 16 17 18 19 20
000
FTUS41 KCLE 271741
TAFTOL
TAF
KTOL 271741Z 2718/2818 02020G38KT 4SM -SHRA BR SCT008 OVC025
      TEMPO 2718/2722 2SM -SHRA BR OVC008
     FM272200 35015G25KT 4SM -SHRA BR SCT008 OVC025
     FM280800 30012KT 5SM BR BKN006 OVC012
     FM281400 33012G20KT P6SM OVC015=

USA.gov is the U.S. government's official web portal to all federal, state and local government web resources and services.